K5WRW-WX Weather Reports


Display with metric or nautical units.
time (UTC)temp
F
wind
direction
speed
MPH
gust
MPH
rain 1hr
in
rain 24hr
in
rain mn
in
humidity
%
barometer
mb
20260507230117 74 0 4.0 6.0 0.00 0.00 0.00 46 1013.9
20260507225117 73 68 1.0 3.0 0.00 0.00 0.00 43 1013.8
20260507224117 73 90 5.0 6.0 0.00 0.00 0.00 43 1013.9
20260507223117 74 0 4.0 6.0 0.00 0.00 0.00 42 1014.0
20260507222117 73 248 2.0 2.0 0.00 0.00 0.00 41 1014.0
20260507221137 75 0 6.0 8.0 0.00 0.00 0.00 40 1014.2
20260507220117 74 293 3.0 4.0 0.00 0.00 0.00 42 1014.2
20260507215116 73 0.0 2.0 0.00 0.00 0.00 42 1014.3
20260507214116 73 0 1.0 3.0 0.00 0.00 0.00 42 1014.4
20260507213117 73 338 1.0 4.0 0.00 0.00 0.00 42 1014.4
20260507212116 74 315 3.0 7.0 0.00 0.00 0.00 42 1014.4
20260507211117 74 338 5.0 6.0 0.00 0.00 0.00 41 1014.4
20260507210116 73 0 1.0 5.0 0.00 0.00 0.00 41 1014.6
20260507205137 74 338 6.0 10.0 0.00 0.00 0.00 41 1014.6
20260507204116 73 338 5.0 8.0 0.00 0.00 0.00 43 1014.9
20260507203117 72 293 2.0 5.0 0.00 0.00 0.00 46 1014.9
20260507202116 73 68 7.0 9.0 0.00 0.00 0.00 47 1015.1
20260507201116 72 23 2.0 6.0 0.00 0.00 0.00 47 1015.3
20260507200116 72 90 1.0 2.0 0.00 0.00 0.00 47 1015.5
20260507195116 72 90 5.0 8.0 0.00 0.00 0.00 48 1015.4
20260507194116 71 248 1.0 3.0 0.00 0.00 0.00 47 1015.6
20260507193116 71 293 2.0 5.0 0.00 0.00 0.00 48 1015.9
20260507192117 70 338 3.0 5.0 0.00 0.00 0.00 48 1016.0
20260507191116 71 45 2.0 5.0 0.00 0.00 0.00 48 1016.1
20260507190116 70 315 2.0 4.0 0.00 0.00 0.00 51 1016.1
20260507185136 70 0 6.0 7.0 0.00 0.00 0.00 52 1016.2
20260507184116 69 0 4.0 5.0 0.00 0.00 0.00 53 1016.5
20260507183116 70 293 2.0 5.0 0.00 0.00 0.00 52 1016.6
20260507182116 69 248 1.0 2.0 0.00 0.00 0.00 52 1016.8
20260507181116 68 23 2.0 5.0 0.00 0.00 0.00 54 1017.2
20260507180116 67 270 6.0 8.0 0.00 0.00 0.00 54 1017.4
20260507175116 67 0.0 0.0 0.00 0.00 0.00 55 1017.5
20260507174116 66 338 1.0 4.0 0.00 0.00 0.00 56 1017.6
20260507173116 65 68 6.0 8.0 0.00 0.00 0.00 56 1017.8
20260507172116 66 135 4.0 5.0 0.00 0.00 0.00 56 1018.1
20260507171116 66 338 1.0 3.0 0.00 0.00 0.00 56 1018.1
20260507170116 66 0.0 1.0 0.00 0.00 0.00 57 1018.3
20260507165156 65 338 4.0 7.0 0.00 0.00 0.00 57 1018.5
20260507164116 65 45 1.0 4.0 0.00 0.00 0.00 57 1018.5
20260507163116 64 90 1.0 4.0 0.00 0.00 0.00 59 1018.5
20260507162116 65 45 4.0 6.0 0.00 0.00 0.00 59 1018.5
20260507161110 64 0 2.0 5.0 0.00 0.00 0.00 60 1018.6
20260507161036 64 0 4.0 6.0 0.00 0.00 0.00 60 1018.6
20260507160016 64 23 6.0 9.0 0.00 0.00 0.00 60 1018.8
20260507155016 63 0.0 1.0 0.00 0.00 0.00 62 1018.9
20260507154016 62 90 3.0 6.0 0.00 0.00 0.00 62 1018.9
20260507153016 63 68 2.0 4.0 0.00 0.00 0.00 62 1019.0
20260507152016 63 23 5.0 8.0 0.00 0.00 0.00 60 1019.0
20260507151016 63 0 5.0 8.0 0.00 0.00 0.00 63 1019.2
20260507150016 62 113 1.0 5.0 0.00 0.00 0.00 66 1019.3
20260507145016 61 0 3.0 7.0 0.00 0.00 0.00 68 1019.4
20260507144015 61 113 4.0 6.0 0.00 0.00 0.00 70 1019.4
20260507143015 60 23 4.0 5.0 0.00 0.00 0.00 69 1019.5
20260507142015 60 0 1.0 3.0 0.00 0.00 0.00 72 1019.5
20260507141015 59 0 2.0 6.0 0.00 0.00 0.00 72 1019.3
20260507140015 58 338 3.0 5.0 0.00 0.00 0.00 77 1019.5
20260507135015 58 338 1.0 2.0 0.00 0.00 0.00 78 1019.5
20260507134015 57 315 1.0 2.0 0.00 0.00 0.00 78 1019.4
20260507133015 57 0 2.0 4.0 0.00 0.00 0.00 80 1019.3
20260507132020 56 338 4.0 6.0 0.00 0.00 0.00 81 1019.5
20260507131016 55 0.0 1.0 0.00 0.00 0.00 83 1019.3
20260507130015 54 293 4.0 5.0 0.00 0.00 0.00 83 1019.4
20260507125015 54 315 5.0 7.0 0.00 0.00 0.00 82 1019.2
20260507124016 54 315 3.0 4.0 0.00 0.00 0.00 82 1019.3
20260507123035 53 315 3.0 5.0 0.00 0.00 0.00 81 1019.2
20260507122016 52 0.0 1.0 0.00 0.00 0.00 82 1019.0
20260507121015 51 0.0 0.0 0.00 0.00 0.00 83 1018.8
20260507120017 51 315 1.0 1.0 0.00 0.00 0.00 83 1018.5
20260507115017 50 315 1.0 2.0 0.00 0.00 0.00 83 1018.4
20260507114017 50 315 1.0 2.0 0.00 0.00 0.00 84 1018.2
20260507113015 50 315 1.0 2.0 0.00 0.00 0.00 84 1018.1
20260507112017 50 315 3.0 4.0 0.00 0.00 0.00 84 1017.9
20260507111037 50 315 3.0 5.0 0.00 0.00 0.00 85 1017.7
20260507110017 50 338 1.0 2.0 0.00 0.00 0.00 84 1017.5
20260507105037 50 338 2.0 3.0 0.00 0.00 0.00 85 1017.5
20260507104017 51 0 1.0 3.0 0.00 0.00 0.00 84 1017.3
20260507103037 51 338 2.0 4.0 0.00 0.00 0.00 84 1017.0
20260507102017 51 338 1.0 2.0 0.00 0.00 0.00 85 1016.9
20260507101017 51 0.0 1.0 0.00 0.00 0.00 85 1016.8
20260507100017 51 338 1.0 2.0 0.00 0.00 0.00 85 1016.8
20260507095017 51 0 4.0 5.0 0.00 0.00 0.00 85 1017.0
20260507094017 51 338 2.0 4.0 0.00 0.00 0.00 85 1017.0
20260507093017 51 0.0 1.0 0.00 0.00 0.00 85 1016.9
20260507092017 51 0.0 1.0 0.00 0.00 0.00 86 1017.0
20260507091017 52 0.0 1.0 0.00 0.00 0.00 85 1016.9
20260507090037 52 0.0 2.0 0.00 0.00 0.00 85 1016.7
20260507085157 52 0 3.0 4.0 0.00 0.00 0.00 85 1016.5
20260507084017 52 0 3.0 4.0 0.00 0.00 0.00 85 1016.5
20260507083017 52 0 4.0 5.0 0.00 0.00 0.00 85 1016.6
20260507082037 52 0 4.0 6.0 0.00 0.00 0.00 85 1016.6
20260507081017 52 0 3.0 5.0 0.00 0.00 0.00 85 1016.6
20260507080016 52 23 2.0 5.0 0.00 0.00 0.00 85 1016.8
20260507075017 52 0 2.0 4.0 0.00 0.00 0.00 85 1016.9
20260507074016 52 0 2.0 3.0 0.00 0.00 0.00 85 1017.0
20260507073016 52 0 1.0 2.0 0.00 0.00 0.00 85 1017.1
20260507072036 53 338 1.0 4.0 0.00 0.00 0.00 85 1017.1
20260507071017 53 338 1.0 5.0 0.00 0.00 0.00 84 1016.9
20260507070017 53 0 1.0 2.0 0.00 0.00 0.00 85 1016.8
20260507065016 53 338 1.0 3.0 0.00 0.00 0.00 85 1016.8
20260507064016 53 0 2.0 4.0 0.00 0.00 0.00 85 1016.6
20260507063016 53 23 3.0 5.0 0.00 0.00 0.00 85 1016.3
20260507062016 54 0 3.0 5.0 0.00 0.00 0.00 84 1016.2
20260507061016 54 0 2.0 4.0 0.00 0.00 0.00 84 1016.3
20260507060037 54 0 4.0 5.0 0.00 0.00 0.00 83 1016.1
20260507055016 54 23 3.0 5.0 0.00 0.00 0.00 83 1016.3
20260507054016 55 23 2.0 4.0 0.00 0.00 0.00 82 1016.2
20260507053016 55 23 3.0 5.0 0.00 0.00 0.00 82 1016.3
20260507052057 55 45 3.0 4.0 0.00 0.00 0.00 81 1016.3
20260507051517 55 23 3.0 5.0 0.00 0.00 0.00 81 1016.4
20260507050516 55 45 2.0 2.0 0.00 0.00 0.00 81 1016.5
20260507045516 55 68 3.0 5.0 0.00 0.00 0.00 81 1016.7
20260507044516 56 45 3.0 4.0 0.00 0.00 0.00 81 1016.7
20260507043516 56 23 2.0 4.0 0.00 0.00 0.00 80 1016.7
20260507042516 56 0.0 0.0 0.00 0.00 0.00 80 1016.7
20260507041516 56 45 2.0 4.0 0.00 0.00 0.00 80 1016.6
20260507040516 56 45 2.0 4.0 0.00 0.00 0.00 80 1016.5
20260507035516 56 45 1.0 4.0 0.00 0.00 0.00 79 1016.6
20260507034516 57 68 2.0 4.0 0.00 0.00 0.00 78 1016.6
20260507033516 57 45 3.0 4.0 0.00 0.00 0.00 78 1016.8
20260507032516 57 45 1.0 2.0 0.00 0.00 0.00 77 1016.5
20260507031515 58 23 2.0 5.0 0.00 0.00 0.00 76 1016.5
20260507030516 58 0 1.0 2.0 0.00 0.00 0.00 76 1016.4
20260507025516 58 0 2.0 3.0 0.00 0.00 0.00 76 1016.4
20260507024516 58 23 5.0 6.0 0.00 0.00 0.00 75 1016.1
20260507023515 58 0.0 1.0 0.00 0.00 0.00 75 1016.0
20260507022516 58 0.0 2.0 0.00 0.00 0.00 75 1015.9
20260507021515 58 23 4.0 6.0 0.00 0.00 0.00 75 1015.6
20260507020515 58 23 5.0 7.0 0.00 0.00 0.00 74 1015.3
20260507015515 58 0 3.0 6.0 0.00 0.00 0.00 74 1015.1
20260507014515 58 0 5.0 7.0 0.00 0.00 0.00 74 1015.2
20260507013515 58 23 4.0 5.0 0.00 0.00 0.00 73 1014.9
20260507012516 58 23 6.0 8.0 0.00 0.00 0.00 73 1014.8
20260507011515 58 23 9.0 11.0 0.00 0.00 0.00 73 1014.6
20260507010515 59 0 8.0 12.0 0.00 0.00 0.00 73 1014.4
20260507005515 59 23 9.0 11.0 0.00 0.00 0.00 73 1014.4
20260507004515 59 23 7.0 10.0 0.00 0.00 0.00 72 1014.3
20260507003516 59 23 5.0 7.0 0.00 0.00 0.00 72 1013.9
20260507002515 60 23 7.0 11.0 0.00 0.00 0.00 72 1013.7
20260507001515 60 0 7.0 9.0 0.00 0.00 0.00 72 1013.7
20260507000515 60 23 8.0 13.0 0.00 0.00 0.00 71 1013.6
20260506235535 60 0 6.0 8.0 0.00 0.00 0.00 72 1013.6
20260506234515 61 0 7.0 13.0 0.00 0.00 0.00 71 1013.5
20260506233515 61 23 4.0 5.0 0.00 0.00 0.00 73 1013.4
20260506232517 61 23 6.0 8.0 0.00 0.00 0.00 71 1013.3
20260506231517 62 23 8.0 11.0 0.00 0.00 0.00 71 1013.3